Regional Weather Roundup
Issued by NWS

Home | Current Version | Previous Version | Graphics & Text | Print | Product List | Glossary On
Versions: 1 2 3 4 5 6 7 8 9 10 11 12 13 14 15 16 17 18 19 20 21 22 23 24 25 26 27 28 29 30 31 32 33 34 35 36 37 38 39 40 41 42 43 44 45 46 47 48 49 50
000
ASUS45 KBOU 300507
RWRCO

WEATHER ROUNDUP FOR COLORADO
NATIONAL WEATHER SERVICE DENVER/BOULDER CO
1100 PM MDT SUN MAR 29 2015

NOTE: "FAIR" INDICATES FEW OR NO CLOUDS BELOW 12000 FEET WITH NO
SIGNIFICANT WEATHER AND/OR OBSTRUCTIONS TO VISIBILITY.

COZ001>005-013-030-031-300600-
...NORTHWEST COLORADO...

CITY           SKY/WX    TMP DP  RH WIND       PRES   REMARKS
CRAIG          CLEAR     37  22  54 NE3       30.24R
HAYDEN         CLEAR     41  18  38 CALM      30.24R
MEEKER         CLEAR     39  22  50 E5        30.25R
MOUNT WERNER   NOT AVBL
STEAMBOAT SPGS CLEAR     39  21  48 SE6       30.25S
WALDEN         PTCLDY    34  16  47 E7        30.28R WCI  28
$$

COZ006>008-011-300600-
...WEST CENTRAL VALLEYS...

CITY           SKY/WX    TMP DP  RH WIND       PRES   REMARKS
GRAND JUNCTION CLEAR     49  12  22 E6        30.15R
MONTROSE       CLEAR     49  18  29 SE12      30.23R
EAGLE          CLEAR     43  16  33 E7        30.27R
RIFLE          CLEAR     47  17  30 E6        30.20R
DELTA          CLEAR     50  17  27 NE6       30.19R
NUCLA          CLEAR     46   9  21 E13       30.26R
$$

COZ017>023-064>068-300600-
...SOUTHWEST COLORADO...

CITY           SKY/WX    TMP DP  RH WIND       PRES   REMARKS
DURANGO        MOCLDY    45  16  31 N3        30.24S
CORTEZ         CLEAR     42  16  34 E7        30.23R
PAGOSA SPRINGS MOCLDY    44  21  39 NE5       30.30R
TELLURIDE      NOT AVBL
WOLF CREEK PAS CLEAR     32  14  47 SW12      30.51S WCI  23
$$

COZ009-010-012-014-032>034-037-058>063-300600-
...CENTRAL COLORADO...

CITY           SKY/WX    TMP DP  RH WIND       PRES   REMARKS
ASPEN          PTCLDY    38  18  44 S8        30.30R
BUENA VISTA    PTCLDY    35  22  60 SW3       30.32R
COPPER MTN     CLEAR     37  -4  17 W18G31    30.46R
BERTHOUD PASS  FAIR      30  23  74 NW25      30.45F WCI  16
COTTONWOOD PAS PTCLDY    43  16  33 CALM      30.38S
GUNNISON       CLEAR     39  12  33 CALM      30.34R
KREMMLING      CLEAR     34  19  55 CALM      30.29R
LEADVILLE      PTCLDY    34   3  27 NE3       30.37R
SALIDA         PTCLDY    45  17  32 SW5       30.37S
SUNLIGHT       CLEAR     41   9  26 W6        30.45S
WILKERSON PASS PTCLDY    34  12  40 SW8       30.44F WCI  27
$$

COZ069>075-300600-
...SAN LUIS VALLEY/SANGRE DE CRISTO MOUNTAINS...

CITY           SKY/WX    TMP DP  RH WIND       PRES   REMARKS
ALAMOSA        CLOUDY    53  25  33 S16       30.29R
LA VETA PASS   PTCLDY    39  23  52 S10G21    30.39R
SAGUACHE       CLEAR     50   0  12 N7        30.31R
$$

COZ035-036-038>040-300600-
...NORTHERN COLORADO FRONT RANGE...

CITY           SKY/WX    TMP DP  RH WIND       PRES   REMARKS
DENVER INTL AP PTCLDY    50  26  39 S16       30.15S
DMNS CITY PARK   N/A     49  27  42 S1        30.15S
AURORA         PTCLDY    51  23  32 SW17      30.16S
FRONT RANGE AP NOT AVBL
ERIE MUNI ARPT PTCLDY    42  29  61 SW5       30.15S
BOULDER MUN AP PTCLDY    50  28  43 W3        30.15F
CENTENNIAL     PTCLDY    50  23  34 S15       30.17S
BROOMFIELD     NOT AVBL
FORT COLLINS   PTCLDY    50  27  40 N5        30.17F
LONGMONT       PTCLDY    47  29  50 NW8       30.16F
$$

COZ041-046-047-076>085-087-088-300600-
...PIKES PEAK/PALMER DIVIDE AND SOUTHERN FOOTHILLS...

CITY           SKY/WX    TMP DP  RH WIND       PRES   REMARKS
COLO. SPRINGS  PTCLDY    45  23  42 S13       30.26S
A. F. ACADEMY  CLEAR     39  23  52 CALM      30.25S
ELLICOTT       CLEAR    N/A N/A N/A S13       30.24F
FALCON         CLEAR     40  21  45 SW8       30.28S
FORT CARSON    PTCLDY    47  24  40 W8        30.23F
LIMON          CLEAR     42  24  49 S12       30.21F
MONUMENT HILL  CLEAR     43  21  42 S18       30.23S
TRINIDAD       MOCLDY    57  30  35 NE8       30.21F
$$

COZ042>045-048>051-090-091-300600-
...NORTHEAST COLORADO...

CITY           SKY/WX    TMP DP  RH WIND       PRES   REMARKS
GREELEY ARPT   PTCLDY    45  19  36 NE8       30.13F
AKRON          PTCLDY    47  22  37 S12       30.17S
BURLINGTON     PTCLDY    41  20  43 S13       30.20F
WRAY           CLEAR     47  18  31 S3        30.17S
STERLING       PTCLDY    36  27  69 SW8       30.15S
HOLYOKE        NOT AVBL
FORT MORGAN    PTCLDY   N/A N/A N/A S3        30.17S
$$

COZ086-089-092>099-300600-
...SOUTHEAST COLORADO...

CITY           SKY/WX    TMP DP  RH WIND       PRES   REMARKS
PUEBLO         CLEAR     51  22  31 NE10      30.19F
LA JUNTA       PTCLDY    47  22  37 E8        30.20F
LAMAR          CLEAR     50  23  34 S12       30.19F
SPRINGFIELD      N/A     42  25  50 S8        30.24S
$$


USA.gov is the U.S. government's official web portal to all federal, state and local government web resources and services.